Wind_Speed
8 8 7 6 6 6 7 8 8 9 9 10 9 9 9 8 8 8 8 8 7 7 6 6 5 5 4 4 4 4 4 5 5 5 5 5 5 6 6 6 6 6 7
7 7 6 6 6 6 6 7 7 8 8 9 9 8 8 8 8 7 7 7 7 6 6 6 5 4 4 5 4 4 4 5 5 5 6 6 6 6 6 6 6 6 6
6 6 6 6 5 5 6 7 7 7 7 8 8 8 7 7 7 7 7 6 6 6 5 5 4 4 4 5 4 4 5 5 5 5 6 6 5 6 6 6 6 6 6
6 5 5 5 5 5 6 6 6 6 7 7 7 7 7 7 6 7 6 6 6 5 5 5 4 4 4 5 5 5 5 5 5 5 5 5 5 5 5 6 6 6 6
5 5 4 4 4 4 5 6 6 6 6 6 6 6 6 6 6 6 6 6 6 5 5 5 4 4 4 5 4 4 4 4 5 5 5 5 5 5 5 5 5 6 6
4 4 3 3 3 4 4 5 6 6 6 6 6 6 6 6 5 5 5 5 5 5 5 5 4 4 4 4 4 4 4 4 4 5 4 4 4 4 4 4 5 6 6
4 2 2 2 3 3 4 5 5 5 6 6 6 6 6 5 5 5 5 5 5 5 5 5 4 4 4 4 4 4 4 4 4 4 4 4 4 4 4 5 5 5 5
5 3 1 1 2 3 4 5 5 5 5 6 6 5 5 5 4 4 4 4 5 5 5 5 5 4 4 4 4 5 5 4 4 4 4 4 4 3 4 4 4 4 4
6 4 2 1 2 4 5 5 5 5 6 6 6 5 5 4 4 4 4 4 5 5 5 5 5 5 4 4 5 5 5 4 4 4 3 4 4 4 4 3 4 4 4
7 5 3 1 2 3 4 5 6 6 6 6 5 5 5 4 3 3 4 4 5 5 5 5 5 5 5 4 4 5 4 4 4 4 4 4 4 4 4 3 3 4 4
7 5 3 2 2 3 5 6 7 6 6 6 5 5 5 4 3 3 4 4 5 5 5 5 5 5 4 4 4 4 4 4 4 4 4 3 3 3 3 3 3 3 3
8 6 4 2 2 3 4 6 7 6 7 7 6 6 5 4 3 3 3 4 4 4 4 4 4 4 4 4 4 4 4 4 4 4 4 3 3 3 3 3 3 3 3
8 7 5 3 3 3 4 5 6 6 7 7 7 6 5 5 4 4 3 4 4 3 3 3 4 4 4 3 3 3 3 3 3 3 3 3 3 2 2 2 2 2 2
8 7 5 4 3 4 4 5 6 7 7 8 8 7 6 5 5 4 3 4 4 4 3 3 3 4 4 3 3 3 3 3 3 3 3 2 2 2 2 2 2 2 2
8 7 6 4 3 4 5 5 6 7 8 8 8 7 7 6 6 5 4 4 4 4 3 3 3 3 3 3 3 3 3 2 2 3 2 3 3 2 1 1 2 2 2
8 7 7 5 4 4 5 6 7 7 8 8 8 7 7 7 6 6 5 5 4 4 4 3 2 3 3 3 3 3 3 2 2 2 2 2 2 1 1 1 1 2 2
8 7 7 6 5 6 6 6 7 7 9 8 8 8 7 7 6 6 6 5 5 4 4 3 3 3 3 3 3 3 2 2 2 2 1 1 1 1 1 1 2 2 2
9 8 8 7 6 6 5 5 6 7 8 8 8 8 8 8 7 6 6 6 5 5 5 4 4 3 2 2 2 2 2 1 1 1 1 1 1 1 1 2 2 2 2
10 9 9 8 6 6 5 5 6 6 7 8 8 8 9 9 8 7 6 6 6 5 5 5 4 3 2 2 1 1 1 1 1 1 0 0 1 2 2 2 2 3 3
11 10 9 8 7 6 7 6 7 7 7 8 8 9 9 9 8 7 7 6 7 6 7 6 4 4 3 2 2 2 1 1 0 0 1 1 2 2 3 3 3 4 4
12 10 8 7 6 6 7 7 7 7 7 7 8 9 9 9 8 7 7 7 7 7 7 7 6 5 4 4 3 3 3 3 2 2 2 2 3 3 4 4 4 5 5
12 10 9 7 6 6 6 6 7 8 7 8 8 8 9 9 8 8 8 8 8 8 8 7 7 6 5 5 5 5 4 4 4 4 4 4 4 5 5 5 5 6 7
11 10 9 6 5 6 6 6 7 8 7 8 8 9 9 9 9 9 9 8 8 8 8 8 8 8 7 7 6 6 6 6 6 6 6 6 6 6 6 7 7 8 8
12 10 8 4 4 5 5 6 7 7 7 8 9 8 8 9 10 10 10 10 9 9 9 9 9 9 9 8 8 8 8 8 8 8 8 8 8 8 9 9 10 10 10
10 9 7 4 4 5 5 6 7 7 7 7 8 8 8 9 10 11 10 10 10 10 10 10 10 10 10 9 9 9 10 10 10 10 10 10 11 11 11 11 12 13 13
9 8 5 2 2 3 4 5 6 6 6 6 7 8 8 8 9 10 11 11 10 10 10 11 11 11 11 11 11 11 12 12 13 13 13 13 14 14 14 15 15 15 16
Wind_Direction
110 113 116 119 125 128 130 128 125 122 119 114 109 105 103 102 100 96 92 88 87 87 86 84 82 83 87 94 103 109 110 112 111 107 111 111 113 111 116 122 121 121 119
106 114 119 126 132 135 136 135 131 129 126 121 115 109 104 101 100 98 96 92 88 88 89 88 87 86 91 97 103 109 109 114 112 111 113 115 115 116 122 120 123 123 120
103 117 123 130 136 140 141 139 137 135 130 124 119 112 105 102 100 98 97 95 90 89 89 91 90 90 95 104 107 107 109 108 110 112 113 116 117 118 122 125 122 124 126
100 112 127 134 141 147 150 147 145 141 137 132 124 117 111 107 103 100 96 96 93 90 91 92 93 94 100 104 106 105 108 115 111 113 116 118 118 122 126 125 120 124 127
94 107 127 144 157 157 160 159 154 150 146 141 133 124 117 113 110 107 100 95 91 91 91 90 93 95 105 111 110 109 109 117 116 115 117 115 113 122 129 132 129 128 129
80 95 122 152 170 168 170 170 170 162 154 150 141 132 125 119 116 115 110 99 95 94 91 89 92 91 99 113 112 111 111 117 121 121 118 120 123 125 130 132 135 129 127
54 65 107 162 183 186 186 183 182 175 166 159 149 142 135 126 121 122 119 109 102 98 92 93 93 92 93 111 114 114 112 115 119 125 128 131 136 137 129 132 137 134 135
36 29 2 230 220 206 197 190 186 184 179 169 159 155 148 134 125 122 117 114 105 96 91 87 91 95 94 97 100 102 107 108 116 122 128 136 141 141 137 132 144 143 141
26 20 1 292 236 220 211 204 193 189 187 181 170 164 159 151 136 121 112 117 103 98 91 84 88 93 90 93 95 101 102 105 111 120 127 138 143 137 137 139 144 151 149
18 12 4 326 259 237 220 208 202 199 195 187 181 177 174 165 149 132 121 121 112 105 94 86 87 94 96 97 98 96 99 103 107 113 119 128 131 135 139 144 143 149 152
7 358 348 326 276 247 229 219 213 210 207 201 196 190 184 177 164 145 135 128 120 110 101 93 89 93 99 103 104 98 99 99 104 115 121 124 132 142 145 144 143 146 154
0 351 335 321 285 248 235 225 220 218 214 206 202 201 196 191 178 154 149 138 128 118 105 98 94 94 98 99 103 96 96 94 99 113 120 125 136 143 141 149 161 161 166
359 353 338 319 295 260 239 231 227 224 214 209 206 207 203 198 188 165 156 151 139 130 114 101 94 95 100 97 94 90 95 97 99 110 120 129 138 144 145 153 165 174 183
355 348 336 312 288 271 251 244 235 225 214 209 207 207 203 199 192 178 160 154 146 143 132 115 102 102 101 94 90 89 96 99 106 109 122 131 137 139 146 162 182 197 201
345 341 328 302 290 271 258 255 241 230 217 211 208 210 206 200 199 193 182 170 162 157 149 137 116 103 103 101 96 92 97 92 97 112 126 137 137 138 161 195 220 235 237
338 331 326 304 284 275 268 249 244 232 221 213 209 211 205 202 198 197 189 179 174 167 165 152 139 119 110 103 97 92 98 94 100 109 127 140 147 160 198 213 222 240 259
329 325 320 304 287 278 267 247 237 225 214 210 212 211 208 198 189 188 190 190 184 175 170 153 145 141 126 111 103 97 92 83 92 107 125 154 171 195 228 247 251 256 264
324 317 313 302 276 264 257 242 225 213 208 208 212 214 209 199 194 193 197 197 192 185 179 170 160 153 151 142 127 114 100 86 103 114 120 155 204 229 246 256 263 259 262
320 312 307 300 275 252 245 240 217 206 207 206 208 209 204 201 199 199 200 204 202 199 195 187 182 180 181 175 159 146 133 114 114 115 125 212 247 257 264 268 269 273 279
318 310 304 287 271 249 237 228 215 207 207 210 212 207 206 205 204 206 207 207 209 210 206 202 202 198 207 211 207 205 211 217 239 240 269 276 273 272 275 272 272 276 282
327 319 306 284 262 243 229 222 215 212 217 213 210 209 211 211 212 215 210 207 212 215 213 210 213 216 220 223 225 226 231 233 245 257 270 282 285 285 283 276 274 275 279
328 323 308 289 251 232 217 218 217 216 213 212 212 213 216 215 214 216 214 215 218 217 215 218 223 225 230 234 236 238 239 242 254 261 268 274 280 282 282 280 277 279 281
331 325 317 288 240 221 215 223 219 220 218 216 217 219 219 219 218 217 219 218 221 223 221 225 228 233 237 240 244 244 247 252 260 265 269 270 273 277 278 280 280 282 282
333 328 325 296 234 210 214 230 229 221 221 223 224 225 228 228 226 227 227 225 228 230 230 232 235 238 241 245 248 249 253 257 261 267 270 270 272 275 278 280 282 284 284
333 331 327 298 243 218 219 228 224 222 225 226 226 223 233 233 230 230 230 231 233 234 234 235 239 243 246 250 253 255 257 260 261 264 268 271 271 272 274 277 280 282 283
333 336 329 303 238 216 222 222 224 225 224 225 225 226 232 234 234 232 232 234 236 239 240 242 244 246 249 253 257 260 262 264 265 266 268 271 272 274 273 274 277 280 282
Height
5900 5900 5900 5900 5900 5900 5901 5901 5901 5901 5901 5901 5901 5902 5902 5902 5902 5902 5902 5902 5902 5902 5902 5902 5902 5902 5902 5902 5902 5901 5901 5901 5901 5901 5901 5901 5901 5901 5901 5901 5901 5901 5901
5901 5901 5901 5901 5901 5901 5901 5902 5902 5902 5902 5902 5902 5902 5902 5902 5903 5903 5903 5903 5903 5903 5903 5903 5903 5903 5902 5902 5902 5902 5902 5902 5902 5902 5902 5902 5902 5902 5902 5902 5902 5902 5902
5902 5901 5902 5902 5902 5902 5902 5902 5902 5902 5902 5902 5902 5903 5903 5903 5903 5903 5903 5903 5903 5903 5903 5903 5903 5903 5903 5903 5903 5903 5903 5903 5903 5903 5903 5903 5903 5903 5903 5903 5903 5903 5904
5902 5902 5902 5903 5903 5903 5903 5903 5903 5903 5903 5903 5903 5903 5903 5903 5903 5904 5904 5904 5904 5904 5904 5904 5904 5904 5904 5904 5904 5903 5903 5903 5903 5903 5903 5903 5903 5904 5904 5904 5904 5904 5904
5903 5903 5903 5903 5903 5904 5904 5904 5904 5904 5904 5904 5903 5904 5904 5904 5904 5904 5904 5904 5904 5905 5904 5904 5904 5904 5904 5904 5904 5904 5904 5904 5904 5904 5904 5904 5904 5905 5905 5905 5905 5905 5905
5903 5903 5903 5903 5904 5904 5904 5904 5904 5904 5904 5904 5904 5904 5904 5904 5905 5905 5905 5905 5905 5905 5905 5905 5904 5904 5904 5904 5904 5904 5904 5904 5905 5905 5904 5905 5905 5905 5905 5906 5906 5906 5907
5903 5903 5903 5903 5904 5904 5904 5904 5904 5904 5904 5904 5904 5905 5905 5905 5905 5905 5905 5905 5905 5905 5905 5905 5905 5905 5905 5905 5905 5905 5905 5905 5905 5905 5905 5905 5906 5906 5906 5906 5907 5907 5908
5903 5903 5903 5903 5903 5903 5904 5904 5904 5904 5904 5904 5904 5905 5905 5905 5905 5905 5905 5905 5905 5905 5905 5905 5905 5905 5905 5905 5905 5905 5905 5905 5905 5905 5906 5906 5906 5907 5907 5907 5908 5908 5908
5903 5902 5902 5902 5902 5902 5903 5903 5903 5904 5904 5904 5904 5905 5905 5905 5905 5905 5905 5905 5905 5906 5906 5905 5905 5905 5905 5905 5905 5905 5906 5906 5906 5906 5906 5906 5907 5907 5908 5908 5909 5909 5909
5902 5902 5901 5901 5901 5901 5902 5902 5903 5903 5903 5904 5904 5904 5905 5905 5905 5905 5906 5906 5906 5906 5906 5906 5906 5906 5906 5906 5906 5906 5906 5906 5906 5906 5907 5907 5907 5908 5908 5909 5909 5909 5910
5902 5901 5901 5900 5900 5900 5901 5901 5901 5902 5902 5903 5903 5904 5904 5905 5905 5905 5906 5906 5906 5906 5906 5907 5907 5906 5907 5907 5907 5907 5907 5907 5907 5907 5907 5908 5908 5908 5909 5909 5909 5910 5910
5901 5900 5900 5899 5899 5899 5899 5900 5900 5901 5901 5902 5903 5903 5904 5905 5905 5905 5906 5906 5906 5907 5907 5907 5907 5907 5907 5907 5907 5907 5907 5907 5907 5908 5908 5908 5908 5909 5909 5909 5910 5910 5910
5901 5900 5899 5898 5898 5898 5898 5898 5899 5899 5900 5901 5902 5903 5904 5904 5905 5905 5905 5906 5906 5907 5907 5907 5907 5907 5908 5908 5908 5908 5908 5908 5908 5908 5908 5908 5909 5909 5909 5910 5910 5910 5910
5900 5899 5898 5897 5897 5897 5897 5897 5898 5898 5899 5900 5901 5902 5903 5904 5904 5905 5905 5906 5906 5907 5907 5907 5908 5908 5908 5908 5908 5908 5908 5908 5908 5909 5909 5909 5909 5909 5910 5910 5910 5910 5910
5900 5899 5897 5896 5896 5896 5896 5896 5896 5897 5898 5899 5900 5901 5902 5903 5904 5904 5905 5906 5906 5907 5907 5907 5908 5908 5908 5908 5909 5909 5909 5909 5909 5909 5909 5909 5909 5910 5910 5910 5910 5910 5910
5899 5897 5896 5895 5894 5894 5894 5895 5895 5895 5897 5898 5899 5901 5902 5903 5903 5904 5905 5905 5906 5907 5907 5907 5908 5908 5908 5909 5909 5909 5909 5909 5909 5909 5909 5909 5909 5910 5910 5910 5910 5910 5910
5897 5896 5895 5894 5893 5893 5893 5893 5894 5895 5896 5897 5898 5900 5901 5902 5903 5903 5904 5905 5906 5906 5907 5907 5908 5908 5909 5909 5909 5909 5909 5909 5909 5909 5909 5909 5909 5909 5909 5909 5909 5909 5909
5896 5895 5893 5892 5892 5892 5892 5892 5893 5894 5895 5896 5897 5899 5900 5901 5902 5903 5904 5905 5905 5906 5907 5907 5908 5908 5909 5909 5909 5909 5909 5909 5909 5909 5909 5909 5909 5909 5909 5909 5909 5909 5909
5895 5893 5892 5891 5890 5890 5890 5891 5892 5893 5894 5895 5896 5898 5899 5900 5901 5902 5903 5904 5905 5905 5906 5907 5908 5908 5909 5909 5909 5909 5909 5909 5909 5909 5909 5909 5909 5909 5909 5909 5908 5908 5908
5893 5891 5890 5889 5888 5888 5889 5890 5892 5892 5893 5894 5895 5897 5898 5899 5900 5901 5902 5903 5904 5905 5906 5907 5907 5908 5908 5909 5909 5909 5909 5909 5909 5909 5909 5909 5909 5908 5908 5908 5908 5907 5907
5891 5889 5888 5887 5887 5887 5888 5889 5890 5892 5893 5893 5894 5895 5897 5898 5899 5900 5901 5902 5903 5904 5905 5906 5907 5907 5908 5908 5909 5909 5909 5909 5909 5909 5909 5908 5908 5908 5907 5907 5907 5906 5906
5890 5888 5885 5884 5884 5885 5887 5888 5889 5890 5891 5892 5893 5894 5896 5897 5898 5899 5900 5901 5902 5903 5904 5905 5906 5907 5907 5908 5908 5908 5908 5909 5909 5908 5908 5908 5908 5907 5907 5906 5906 5905 5905
5888 5886 5883 5882 5883 5884 5885 5887 5888 5889 5890 5891 5892 5893 5895 5896 5897 5898 5899 5900 5901 5902 5903 5904 5905 5906 5906 5906 5907 5907 5908 5908 5908 5908 5907 5907 5906 5906 5906 5905 5905 5904 5903
5888 5885 5882 5881 5882 5883 5885 5886 5887 5888 5889 5890 5891 5892 5893 5894 5895 5896 5897 5898 5900 5901 5902 5902 5903 5904 5905 5905 5905 5906 5906 5906 5906 5906 5906 5905 5905 5905 5904 5904 5903 5902 5901
5887 5884 5882 5881 5882 5883 5884 5885 5886 5887 5888 5889 5890 5891 5892 5893 5893 5894 5895 5897 5898 5899 5900 5901 5901 5902 5902 5903 5903 5904 5904 5904 5904 5904 5903 5903 5903 5902 5902 5901 5900 5900 5899
5886 5884 5881 5881 5882 5883 5884 5884 5885 5885 5886 5887 5888 5889 5890 5891 5892 5893 5894 5895 5896 5897 5898 5898 5899 5900 5900 5901 5901 5901 5901 5901 5901 5901 5901 5900 5900 5899 5899 5898 5897 5896 5895